Change the Weather History Date:

Thursday, May 9, 2013

  Actual Average Record
Temperature  
Mean Temperature 42 °F -  
Max Temperature 54 °F 51 °F 68 °F (2014)
Min Temperature 30 °F 37 °F 21 °F (1964)
Degree Days  
Heating Degree Days 24    
Moisture  
Dew Point 34 °F    
Average Humidity 72    
Maximum Humidity 89    
Minimum Humidity 52    
Precipitation  
Precipitation 0.06 in - - ()
Sea Level Pressure  
Sea Level Pressure 30.26 in    
Wind  
Wind Speed 3 mph (NNW)    
Max Wind Speed 14 mph    
Max Gust Speed 20 mph    
Visibility 10 miles    
Events Rain    
Averages and records for this station are not official NWS values.
T = Trace of Precipitation, MM = Missing Value Source: NWS Daily Summary

Daily Weather History Graph

Daily Weather History Graph

Search for Another Location

Airport or City:

Trip Planner

Search our weather history database for the weather conditions in past years. The results will help you decide how hot, cold, wet, or windy it might be!

Date:

Astronomy

May. 09, 2013 Rise Set
Actual Time 5:32 AM AKDT 10:17 PM AKDT
Civil Twilight 4:33 AM AKDT 11:17 PM AKDT
Nautical Twilight 2:33 AM AKDT 1:29 AM AKDT
Astronomical Twilight Sun does not rise Sun does not rise
Moon 5:31 AM AKDT (5/9) 10:21 PM AKDT (5/9)
Length of Visible Light 18h 44m
Length of Day
16h 44m
Waning Crescent, 0% of the Moon is Illuminated
May 9
Waning Crescent
May 9
New
May 17
First Quarter
May 24
Full
May 31
Last Quarter

Hourly Weather History & Observations

Time (AKDT) Temp. Windchill Dew Point Humidity Pressure Visibility Wind Dir Wind Speed Gust Speed Precip Events Conditions
12:53 AM 35.1 °F 32.2 °F 28.9 °F 78% 30.26 in 10.0 mi North 3.5 mph - N/A   Clear
1:53 AM 34.0 °F - 28.0 °F 79% 30.27 in 10.0 mi Calm Calm - N/A   Clear
2:53 AM 30.9 °F 26.2 °F 28.0 °F 89% 30.27 in 10.0 mi North 4.6 mph - N/A   Clear
3:53 AM 33.1 °F 30.0 °F 28.0 °F 82% 30.26 in 10.0 mi North 3.5 mph - N/A   Clear
4:53 AM 34.0 °F - 28.9 °F 82% 30.26 in 10.0 mi Calm Calm - N/A   Clear
5:53 AM 36.0 °F - 28.9 °F 76% 30.26 in 10.0 mi Calm Calm - N/A   Mostly Cloudy
6:53 AM 37.0 °F - 28.9 °F 73% 30.27 in 10.0 mi Calm Calm - N/A   Mostly Cloudy
7:53 AM 39.0 °F - 30.0 °F 70% 30.29 in 10.0 mi Calm Calm - N/A   Overcast
8:53 AM 39.0 °F - 32.0 °F 76% 30.31 in 10.0 mi Calm Calm - 0.00 in Rain Light Rain
9:53 AM 39.9 °F - 34.0 °F 79% 30.32 in 6.0 mi Calm Calm - 0.03 in Rain Light Rain
10:53 AM 42.1 °F 34.9 °F 37.9 °F 85% 30.29 in 10.0 mi NNE 13.8 mph 19.6 mph 0.03 in Rain Light Rain
11:53 AM 46.0 °F 40.2 °F 37.9 °F 73% 30.27 in 10.0 mi North 12.7 mph - 0.00 in   Mostly Cloudy
12:53 PM 50.0 °F - 39.0 °F 66% 30.27 in 10.0 mi North 9.2 mph - N/A   Scattered Clouds
1:53 PM 53.1 °F - 36.0 °F 52% 30.27 in 10.0 mi Calm Calm - N/A   Mostly Cloudy
2:53 PM 53.1 °F - 36.0 °F 52% 30.26 in 10.0 mi South 6.9 mph - N/A   Scattered Clouds
3:53 PM 51.1 °F - 39.0 °F 63% 30.25 in 10.0 mi South 5.8 mph - N/A   Overcast
4:53 PM 52.0 °F - 39.0 °F 61% 30.24 in 10.0 mi South 8.1 mph - N/A   Clear
5:53 PM 52.0 °F - 39.9 °F 63% 30.23 in 10.0 mi South 5.8 mph - N/A   Scattered Clouds
6:53 PM 52.0 °F - 37.0 °F 57% 30.22 in 10.0 mi South 4.6 mph - N/A   Overcast
7:53 PM 50.0 °F - 39.9 °F 68% 30.21 in 10.0 mi South 3.5 mph - N/A   Clear
9:53 PM 45.0 °F - 39.0 °F 80% 30.22 in 10.0 mi Calm Calm - N/A   Clear
10:53 PM 39.9 °F 37.8 °F 35.1 °F 83% 30.22 in 10.0 mi North 3.5 mph - N/A   Clear
11:53 PM 37.9 °F - 32.0 °F 79% 30.22 in 10.0 mi Calm Calm - N/A   Clear